KE5KUL-13 Weather Reports


time (UTC)temp
C
wind
direction
speed
KPH
gust
KPH
rain 1hr
cm
rain 24hr
cm
rain mn
cm
humidity
%
barometer
mb
20260906212018 35 203 8.0 20.9 0.00 0.00 0.00 31 1019.7
20260906211018 35 135 8.0 17.7 0.00 0.00 0.00 31 1020.0
20260906210018 36 113 8.0 17.7 0.00 0.00 0.00 31 1020.3
20260906205018 36 135 6.4 17.7 0.00 0.00 0.00 31 1020.3
20260906204018 36 135 8.0 16.1 0.00 0.00 0.00 31 1020.8
20260906203018 35 113 4.8 11.3 0.00 0.00 0.00 34 1020.6
20260906202018 34 158 9.7 17.7 0.00 0.00 0.00 34 1020.2
20260906201018 35 158 9.7 25.7 0.00 0.00 0.00 34 1020.3
20260906200018 35 158 6.4 14.5 0.00 0.00 0.00 34 1020.8
20260906195018 35 158 6.4 14.5 0.00 0.00 0.00 34 1020.8
20260906194018 35 135 4.8 12.9 0.00 0.00 0.00 33 1021.0
20260906193018 35 113 6.4 14.5 0.00 0.00 0.00 33 1021.2
20260906192018 35 225 6.4 12.9 0.00 0.00 0.00 34 1021.2
20260906191018 35 158 6.4 17.7 0.00 0.00 0.00 35 1021.3
20260906190018 35 135 6.4 14.5 0.00 0.00 0.00 35 1021.5
20260906185018 35 135 8.0 17.7 0.00 0.00 0.00 35 1021.6
20260906184018 33 113 6.4 16.1 0.00 0.00 0.00 37 1021.5
20260906183018 34 158 8.0 16.1 0.00 0.00 0.00 36 1021.9
20260906182018 35 158 9.7 19.3 0.00 0.00 0.00 36 1022.2
20260906181018 35 225 6.4 17.7 0.00 0.00 0.00 36 1022.4
20260906180018 34 158 8.0 16.1 0.00 0.00 0.00 38 1022.5
20260906175017 34 158 9.7 19.3 0.00 0.00 0.00 37 1022.6
20260906174017 33 158 8.0 19.3 0.00 0.00 0.00 39 1022.8
20260906173018 33 158 9.7 17.7 0.00 0.00 0.00 40 1022.6
20260906172018 33 158 8.0 22.5 0.00 0.00 0.00 41 1022.7
20260906171018 33 158 9.7 20.9 0.00 0.00 0.00 42 1023.0
20260906170018 33 158 6.4 17.7 0.00 0.00 0.00 42 1022.9
20260906165017 32 158 8.0 19.3 0.00 0.00 0.00 44 1022.8
20260906164017 32 158 8.0 20.9 0.00 0.00 0.00 43 1023.1
20260906163017 32 180 8.0 16.1 0.00 0.00 0.00 44 1023.1
20260906162018 32 158 9.7 20.9 0.00 0.00 0.00 43 1023.2
20260906161018 32 158 8.0 12.9 0.00 0.00 0.00 45 1022.9
20260906160017 31 158 6.4 14.5 0.00 0.00 0.00 46 1022.8
20260906155017 31 203 6.4 16.1 0.00 0.00 0.00 47 1022.7
20260906154017 31 158 6.4 16.1 0.00 0.00 0.00 48 1022.7
20260906153017 30 225 6.4 16.1 0.00 0.00 0.00 49 1022.9
20260906152017 31 180 8.0 17.7 0.00 0.00 0.00 49 1023.0
20260906151017 31 158 6.4 12.9 0.00 0.00 0.00 49 1023.0
20260906150017 30 180 6.4 14.5 0.00 0.00 0.00 50 1022.9
20260906145017 29 203 6.4 19.3 0.00 0.00 0.00 52 1022.7
20260906144017 28 225 6.4 14.5 0.00 0.00 0.00 54 1022.4
20260906143017 27 203 4.8 12.9 0.00 0.00 0.00 55 1022.4
20260906142017 27 180 4.8 12.9 0.00 0.00 0.00 56 1022.2
20260906141019 26 158 4.8 9.7 0.00 0.00 0.00 56 1022.0
20260906140018 26 180 4.8 12.9 0.00 0.00 0.00 57 1022.0
20260906135017 25 180 4.8 8.0 0.00 0.00 0.00 59 1021.5
20260906134017 25 158 1.6 4.8 0.00 0.00 0.00 61 1021.4
20260906133019 24 158 4.8 11.3 0.00 0.00 0.00 61 1021.2
20260906132017 24 135 4.8 14.5 0.00 0.00 0.00 61 1021.0
20260906131017 23 158 6.4 12.9 0.00 0.00 0.00 62 1021.1
20260906130017 23 158 4.8 9.7 0.00 0.00 0.00 62 1021.1
20260906125017 23 158 3.2 6.4 0.00 0.00 0.00 62 1021.2
20260906124017 23 158 3.2 4.8 0.00 0.00 0.00 62 1021.2
20260906123019 23 158 1.6 6.4 0.00 0.00 0.00 62 1021.1
20260906122019 23 135 1.6 6.4 0.00 0.00 0.00 62 1021.1
20260906121019 23 135 3.2 6.4 0.00 0.00 0.00 61 1020.9
20260906120019 23 158 4.8 9.7 0.00 0.00 0.00 61 1020.9
20260906115017 23 135 1.6 6.4 0.00 0.00 0.00 61 1020.9
20260906114019 23 135 1.6 4.8 0.00 0.00 0.00 60 1021.1
20260906113019 23 158 3.2 6.4 0.00 0.00 0.00 60 1021.2
20260906112017 23 158 3.2 6.4 0.00 0.00 0.00 60 1021.0
20260906111019 23 158 1.6 6.4 0.00 0.00 0.00 59 1021.2
20260906110019 24 158 3.2 6.4 0.00 0.00 0.00 59 1021.4
20260906105019 24 158 3.2 8.0 0.00 0.00 0.00 59 1021.4
20260906104019 24 158 1.6 3.2 0.00 0.00 0.00 59 1021.5
20260906103019 24 158 3.2 8.0 0.00 0.00 0.00 58 1021.4
20260906102019 24 158 4.8 9.7 0.00 0.00 0.00 58 1021.2
20260906101019 24 158 4.8 9.7 0.00 0.00 0.00 57 1021.2
20260906100018 25 158 4.8 8.0 0.00 0.00 0.00 57 1021.1
20260906095019 25 158 1.6 6.4 0.00 0.00 0.00 57 1021.4
20260906094019 25 158 3.2 8.0 0.00 0.00 0.00 57 1021.4
20260906093019 25 158 4.8 8.0 0.00 0.00 0.00 57 1021.2
20260906092018 25 158 3.2 8.0 0.00 0.00 0.00 56 1021.2
20260906091018 25 158 3.2 8.0 0.00 0.00 0.00 56 1021.4
20260906090019 25 158 4.8 9.7 0.00 0.00 0.00 55 1021.5
20260906085019 25 158 4.8 8.0 0.00 0.00 0.00 55 1021.7
20260906084019 25 158 3.2 9.7 0.00 0.00 0.00 54 1021.7
20260906083018 25 158 3.2 9.7 0.00 0.00 0.00 54 1021.7
20260906082018 25 158 3.2 9.7 0.00 0.00 0.00 54 1021.7
20260906081018 26 158 3.2 8.0 0.00 0.00 0.00 54 1021.7
20260906080019 26 158 3.2 9.7 0.00 0.00 0.00 54 1021.7
20260906075018 26 158 6.4 11.3 0.00 0.00 0.00 54 1021.7
20260906074018 26 158 4.8 11.3 0.00 0.00 0.00 54 1021.7
20260906073018 26 135 4.8 12.9 0.00 0.00 0.00 53 1021.4
20260906072018 26 158 4.8 9.7 0.00 0.00 0.00 53 1021.5
20260906071018 26 158 6.4 12.9 0.00 0.00 0.00 52 1021.6
20260906070018 26 180 4.8 14.5 0.00 0.00 0.00 52 1021.7
20260906065018 26 158 4.8 16.1 0.00 0.00 0.00 52 1021.7
20260906064018 26 158 6.4 17.7 0.00 0.00 0.00 51 1021.6
20260906063018 27 158 6.4 14.5 0.00 0.00 0.00 51 1021.6
20260906062019 27 158 6.4 14.5 0.00 0.00 0.00 51 1021.6
20260906061018 27 135 4.8 12.9 0.00 0.00 0.00 50 1021.5
20260906060018 27 135 8.0 17.7 0.00 0.00 0.00 49 1021.6
20260906055018 27 158 8.0 17.7 0.00 0.00 0.00 49 1021.4
20260906054018 28 158 4.8 12.9 0.00 0.00 0.00 48 1021.6
20260906053018 28 158 8.0 17.7 0.00 0.00 0.00 48 1021.4
20260906052018 28 135 8.0 22.5 0.00 0.00 0.00 47 1021.4
20260906051018 28 158 8.0 14.5 0.00 0.00 0.00 47 1021.3
20260906050018 28 158 6.4 17.7 0.00 0.00 0.00 46 1021.4
20260906045019 28 135 6.4 14.5 0.00 0.00 0.00 46 1021.4
20260906044019 29 158 6.4 14.5 0.00 0.00 0.00 46 1021.5
20260906043019 29 158 6.4 14.5 0.00 0.00 0.00 45 1021.1
20260906042017 29 158 4.8 14.5 0.00 0.00 0.00 44 1021.1
20260906041019 29 158 4.8 11.3 0.00 0.00 0.00 44 1020.8
20260906040019 30 158 6.4 12.9 0.00 0.00 0.00 43 1020.9
20260906035019 30 135 4.8 11.3 0.00 0.00 0.00 43 1020.9
20260906034017 30 135 6.4 11.3 0.00 0.00 0.00 42 1020.6
20260906033019 30 135 6.4 16.1 0.00 0.00 0.00 42 1020.9
20260906032019 30 135 6.4 14.5 0.00 0.00 0.00 42 1020.4
20260906031019 30 158 6.4 12.9 0.00 0.00 0.00 41 1020.2
20260906030017 30 158 8.0 17.7 0.00 0.00 0.00 42 1019.7
20260906025019 30 135 6.4 14.5 0.00 0.00 0.00 42 1019.4
20260906024019 31 135 8.0 14.5 0.00 0.00 0.00 40 1019.4
20260906023018 31 135 8.0 19.3 0.00 0.00 0.00 40 1019.1
20260906022019 31 135 6.4 14.5 0.00 0.00 0.00 40 1018.8
20260906021019 31 158 6.4 16.1 0.00 0.00 0.00 40 1019.1
20260906020019 31 158 4.8 11.3 0.00 0.00 0.00 40 1018.7
20260906015019 31 135 4.8 11.3 0.00 0.00 0.00 40 1018.5
20260906014018 31 135 4.8 11.3 0.00 0.00 0.00 40 1018.2
20260906013019 32 135 4.8 11.3 0.00 0.00 0.00 40 1018.1
20260906012019 32 135 6.4 11.3 0.00 0.00 0.00 39 1018.0
20260906011018 32 113 4.8 11.3 0.00 0.00 0.00 38 1018.1
20260906010018 32 113 6.4 12.9 0.00 0.00 0.00 38 1017.8
20260906005018 32 158 4.8 12.9 0.00 0.00 0.00 37 1017.8
20260906004018 33 135 6.4 14.5 0.00 0.00 0.00 36 1017.9
20260906003018 33 158 6.4 14.5 0.00 0.00 0.00 36 1017.8
20260906002019 33 158 8.0 17.7 0.00 0.00 0.00 36 1018.0
20260906001018 34 158 9.7 19.3 0.00 0.00 0.00 36 1018.1
20260906000019 34 135 6.4 12.9 0.00 0.00 0.00 34 1017.8
20260905235019 35 135 3.2 11.3 0.00 0.00 0.00 33 1017.4
20260905234019 35 135 6.4 19.3 0.00 0.00 0.00 33 1017.4
20260905233018 35 135 4.8 8.0 0.00 0.00 0.00 32 1017.1
20260905232018 35 135 6.4 17.7 0.00 0.00 0.00 31 1017.0
20260905231018 35 135 4.8 16.1 0.00 0.00 0.00 31 1017.2
20260905230018 36 180 6.4 14.5 0.00 0.00 0.00 30 1017.2
20260905225018 36 135 3.2 8.0 0.00 0.00 0.00 29 1017.4
20260905224018 37 135 8.0 17.7 0.00 0.00 0.00 29 1017.5
20260905223018 37 135 6.4 17.7 0.00 0.00 0.00 29 1017.7
20260905222018 37 135 8.0 19.3 0.00 0.00 0.00 31 1017.7
20260905221018 36 158 8.0 19.3 0.00 0.00 0.00 32 1017.6
20260905220018 36 158 9.7 24.1 0.00 0.00 0.00 31 1017.9
20260905215018 37 158 6.4 16.1 0.00 0.00 0.00 30 1017.9
20260905214018 37 113 8.0 17.7 0.00 0.00 0.00 31 1018.1
20260905213018 36 158 8.0 14.5 0.00 0.00 0.00 31 1018.2